Home > Time Zones > World Clock > Weather > Serbia > Niš > Past weeks

Flag for Serbia Weather past 2 weeks in Niš, Serbia

Now
93 °F

Passing clouds.


Feels Like: 95 °F
Forecast: 68 / 90 °F
Wind: 10 mph from Northeast

Location: Nis Airport

Current Time: Aug 2, 2015 at 4:24:49 PM

Latest Report: Aug 2, 2015 at 4:00 PM


Visibility: N/A

Pressure: 29.98 "Hg

Humidity: 39%

Dew point: 64 °F

Location of NišLocation

Historic Weather in Niš — Graph

°F

Niš temperature yesterday

Maximum temperature yesterday: 90 °F (at 4:00 PM)
Minimum temperature yesterday: 57 °F (at 6:00 AM)
Average temperature yesterday: 74 °F

Past Weeks' High & Low Weather Summary

 TemperatureHumidityPressure
High99 °F (Jul 18, 4:30 PM)94% (Aug 1, 6:00 AM)30.09 "Hg (Aug 1, 6:00 AM)
Low57 °F (Aug 1, 6:00 AM)16% (Jul 25, 5:30 PM)29.65 "Hg (Jul 27, 6:30 PM)
Average80 °F50%29.89 "Hg
* Reported Jul 18 3:00 PM — Aug 2 3:00 PM, Niš, Weather by CustomWeather, © 2015

Note: Actual official high and low records may vary slightly from our data, if they occured in-between our weather recording intervals... More about our weather records

Advertising

Niš weather history for previous 24 hours

 ConditionsComfort  
Time TempWeatherWind HumidityBarometerVisibility
3:00 PM
Sun, Aug 2
93 °FPassing clouds.10 mph39%30.01 "HgN/A
2:30 PM93 °FPassing clouds.9 mph39%30.01 "HgN/A
2:00 PM93 °FPassing clouds.12 mph39%30.01 "HgN/A
1:30 PM93 °FPassing clouds.7 mph39%30.04 "HgN/A
1:00 PM91 °FPassing clouds.6 mph41%30.04 "HgN/A
12:30 PM90 °FPassing clouds.7 mph41%30.04 "HgN/A
12:00 PM90 °FPassing clouds.7 mph41%30.04 "HgN/A
11:30 AM88 °FPassing clouds.10 mph43%30.07 "HgN/A
11:00 AM86 °FPassing clouds.12 mph46%30.07 "HgN/A
10:30 AM84 °FPassing clouds.14 mph48%30.07 "HgN/A
10:00 AM82 °FPassing clouds.15 mph51%30.07 "HgN/A
9:30 AM82 °FPassing clouds.16 mph51%30.07 "HgN/A
9:00 AM81 °FPassing clouds.14 mph54%30.07 "HgN/A
8:30 AM79 °FPassing clouds.12 mph58%30.07 "HgN/A
8:00 AM77 °FPassing clouds.8 mph61%30.09 "HgN/A
7:30 AM73 °FSunny.2 mph69%30.07 "Hg10 mi
7:00 AM70 °FPassing clouds.3 mph78%30.07 "HgN/A
6:30 AM68 °FSunny.1 mph83%30.07 "Hg10 mi
6:00 AM66 °FClear.1 mph83%30.07 "Hg10 mi
5:30 AM68 °FPassing clouds.5 mph78%30.07 "HgN/A
5:00 AM68 °FClear.2 mph83%30.07 "Hg10 mi
4:30 AM73 °FPassing clouds.5 mph65%30.07 "HgN/A
4:00 AM73 °FPassing clouds.5 mph65%30.04 "HgN/A
3:30 AM73 °FPassing clouds.5 mph65%30.04 "HgN/A
3:00 AM75 °FPassing clouds.7 mph61%30.04 "HgN/A
2:30 AM75 °FPassing clouds.7 mph61%30.04 "HgN/A
2:00 AM75 °FClear.2 mph61%30.04 "Hg10 mi
1:30 AM73 °FPassing clouds.3 mph65%30.04 "HgN/A
1:00 AM73 °FClear.6 mph65%30.04 "Hg10 mi
12:00 AM75 °FPassing clouds.8 mph61%30.04 "HgN/A
11:30 PM
Sat, Aug 1
75 °FClear.7 mph61%30.04 "Hg10 mi
11:00 PM75 °FPassing clouds.5 mph61%30.04 "HgN/A
10:30 PM75 °FPassing clouds.5 mph61%30.04 "HgN/A
10:00 PM75 °FPassing clouds.3 mph61%30.04 "HgN/A
9:30 PM77 °FPassing clouds.3 mph57%30.04 "HgN/A
9:00 PM77 °FPassing clouds.9 mph57%30.01 "HgN/A
8:30 PM79 °FPassing clouds.10 mph54%30.01 "HgN/A
8:00 PM79 °FSunny.10 mph54%29.98 "Hg10 mi
7:30 PM81 °FSunny.12 mph51%29.98 "Hg10 mi
7:00 PM82 °FSunny.12 mph45%29.98 "Hg10 mi
6:30 PM86 °FPassing clouds.13 mph40%29.98 "HgN/A
6:00 PM88 °FPassing clouds.12 mph35%29.98 "HgN/A
5:00 PM90 °FPassing clouds.6 mph31%29.98 "HgN/A
4:30 PM90 °FSunny.6 mph31%29.98 "Hg10 mi
4:00 PM90 °FPassing clouds.8 mph33%29.98 "HgN/A
Weather by CustomWeather, © 2015

See weather overviewHow to use our weather pages